User: anonymous   Login
Location: Cimarron National Grasslands
(37.1250°N, 101.7500°W)
Time: 19:39:18
(UTC-06:00)
Language:

Ariane Rocket - Orbit

View from above orbital plane
View from above orbital plane
View from above satellite
View from above satellite

Ground track
Ground track

The orbit data is extracted from the following two-line orbital elements,

1 23561U 95021B   15065.17553949  .00000406  00000-0  15082-3 0  9993
2 23561 098.7192 039.3318 0006464 200.0222 226.0624 14.37512706 41418
Epoch (UTC): 06 March 2015 04:12:46
Eccentricity: 0.0006464
inclination: 98.7192°
perigee height: 762 km
apogee height: 771 km
right ascension of ascending node: 39.3318°
argument of perigee: 200.0222°
revolutions per day: 14.37512706
mean anomaly at epoch: 226.0624°
orbit number at epoch: 4141

The dashed part of the orbit path shows where the satellite is in the earth's shadow,  

DLR